�N����,����,�~����,�C��,���x,�C��,����,���ϕ���,�ő�u�ԕ���,�ő厞����,���˗�,�I�_���x,�n�����x,�ő啗���N��,DTYPE
"23/03/12","00:10",0.0,10.3,64.4,1020.6,309.6,1.8,2.2,315.6,0.00,3.9,12.0,"00:03:42",1
"23/03/12","00:20",0.0,10.1,65.3,1020.4,298.1,1.7,2.2,311.3,0.00,3.9,12.1,"00:11:20",1
"23/03/12","00:30",0.0,10.3,65.9,1020.4,318.5,2.2,2.9,318.4,0.00,4.3,11.8,"00:21:28",1
"23/03/12","00:40",0.0,10.1,66.8,1020.1,314.7,2.0,2.5,315.0,0.00,4.3,11.8,"00:30:08",1
"23/03/12","00:50",0.0,10.1,67.9,1020.6,301.9,2.3,3.2,333.4,0.00,4.5,11.5,"00:46:02",1
"23/03/12","01:00",0.0,10.3,68.2,1020.4,307.0,2.6,3.9,317.1,0.00,4.7,11.8,"00:53:52",1
"23/03/12","01:10",0.0,10.2,68.4,1020.8,308.1,2.1,3.5,318.5,0.00,4.7,11.6,"01:05:26",1
"23/03/12","01:20",0.0,10.0,69.4,1020.4,305.3,2.2,3.2,313.3,0.00,4.7,11.7,"01:19:52",1
"23/03/12","01:30",0.0,10.3,70.1,1020.6,309.8,2.5,3.9,323.5,0.00,5.1,11.6,"01:28:50",1
"23/03/12","01:40",0.0,9.9,70.5,1020.6,316.3,1.8,2.8,322.3,0.00,4.8,11.7,"01:33:20",1
"23/03/12","01:50",0.0,9.9,71.6,1020.4,303.8,2.3,2.9,305.6,0.00,5.1,11.6,"01:46:24",1
"23/03/12","02:00",0.0,9.8,72.3,1020.8,319.4,2.3,2.9,320.8,0.00,5.1,11.4,"01:56:40",1
"23/03/12","02:10",0.0,9.9,73.1,1020.1,308.8,2.1,3.1,321.3,0.00,5.4,11.5,"02:02:16",1
"23/03/12","02:20",0.0,9.4,73.6,1020.4,323.3,2.0,3.3,322.2,0.00,5.0,11.4,"02:18:56",1
"23/03/12","02:30",0.0,8.3,75.3,1020.4,321.8,2.2,2.7,326.6,0.00,4.2,11.4,"02:21:36",1
"23/03/12","02:40",0.0,8.3,77.0,1020.4,317.9,1.7,2.1,322.0,0.00,4.5,11.4,"02:38:32",1
"23/03/12","02:50",0.0,8.2,78.8,1019.9,313.5,2.2,2.9,319.3,0.00,4.8,11.1,"02:48:00",1
"23/03/12","03:00",0.0,7.8,80.7,1019.7,311.0,2.2,2.7,313.1,0.00,4.7,11.3,"02:50:24",1
"23/03/12","03:10",0.0,7.6,82.1,1019.7,300.3,1.3,2.6,319.8,0.00,4.8,11.5,"03:08:32",1
"23/03/12","03:20",0.0,7.7,83.4,1019.4,316.1,2.3,3.1,323.1,0.00,5.1,11.2,"03:18:16",1
"23/03/12","03:30",0.0,7.5,84.6,1019.7,312.3,2.2,3.1,319.3,0.00,5.1,11.1,"03:20:40",1
"23/03/12","03:40",0.0,7.5,85.3,1019.2,306.5,2.0,2.5,318.4,0.00,5.2,11.1,"03:30:08",1
"23/03/12","03:50",0.0,7.2,85.8,1019.2,296.4,1.6,2.1,315.4,0.00,5.0,11.0,"03:42:16",1
"23/03/12","04:00",0.0,7.2,86.6,1019.4,307.6,2.0,2.9,316.7,0.00,5.2,11.2,"03:59:44",1
"23/03/12","04:10",0.0,7.2,87.3,1019.2,314.6,2.3,3.1,311.5,0.00,5.3,11.1,"04:01:12",1
"23/03/12","04:20",0.0,7.3,87.8,1019.2,296.6,1.5,2.9,321.8,0.00,5.5,11.0,"04:18:00",1
"23/03/12","04:30",0.0,7.0,88.4,1019.2,313.9,2.6,3.7,325.7,0.00,5.3,10.9,"04:28:08",1
"23/03/12","04:40",0.0,7.0,89.0,1019.4,311.8,2.3,2.6,314.2,0.00,5.4,10.8,"04:31:28",1
"23/03/12","04:50",0.0,7.0,89.5,1019.2,298.7,1.6,2.5,318.4,0.00,5.4,10.8,"04:49:44",1
"23/03/12","05:00",0.0,6.8,89.8,1019.2,305.1,1.7,2.2,312.3,0.00,5.3,10.7,"04:50:08",1
"23/03/12","05:10",0.0,7.2,90.2,1019.2,302.5,1.7,3.2,313.9,0.00,5.7,10.8,"05:02:24",1
"23/03/12","05:20",0.0,7.0,90.6,1019.4,308.0,2.1,2.9,323.0,0.00,5.6,10.8,"05:13:12",1
"23/03/12","05:30",0.0,6.9,91.0,1019.0,304.6,2.2,2.9,307.1,0.00,5.6,10.5,"05:20:34",1
"23/03/12","05:40",0.0,6.8,91.3,1019.4,301.7,1.8,2.6,308.8,0.00,5.5,10.8,"05:32:16",1
"23/03/12","05:50",0.0,6.8,91.7,1019.4,306.7,2.0,3.2,322.3,0.00,5.6,10.7,"05:47:20",1
"23/03/12","06:00",0.0,6.7,92.0,1019.2,307.1,2.2,3.1,313.2,0.00,5.5,10.7,"05:56:30",1
"23/03/12","06:10",0.0,6.9,92.5,1019.4,309.2,2.6,3.1,324.3,0.00,5.8,10.7,"06:06:00",1
"23/03/12","06:20",0.0,7.1,92.7,1019.0,313.5,2.6,3.4,314.9,0.00,6.0,10.5,"06:19:28",1
"23/03/12","06:30",0.0,7.0,92.9,1019.4,311.5,2.7,3.5,322.3,0.00,6.0,10.3,"06:21:28",1
"23/03/12","06:40",0.0,7.2,93.2,1019.4,293.7,0.8,1.3,299.1,0.00,6.2,10.4,"06:30:08",1
"23/03/12","06:50",0.0,7.3,93.4,1019.0,302.2,1.7,2.9,318.2,0.00,6.3,10.4,"06:49:52",1
"23/03/12","07:00",0.0,7.2,93.6,1019.2,301.7,1.8,2.7,321.8,0.00,6.3,10.4,"06:50:16",1
"23/03/12","07:10",0.0,7.3,93.9,1019.4,308.8,2.5,3.1,318.9,0.00,6.4,10.1,"07:03:28",1
"23/03/12","07:20",0.0,7.4,94.2,1019.4,308.9,2.3,2.6,311.3,0.00,6.6,10.3,"07:13:44",1
"23/03/12","07:30",0.0,7.5,94.3,1019.4,296.0,1.7,2.6,306.8,0.00,6.7,10.2,"07:23:36",1
"23/03/12","07:40",0.0,7.7,94.5,1019.4,292.2,1.7,2.0,311.0,0.01,6.9,10.2,"07:39:12",1
"23/03/12","07:50",0.0,8.1,94.7,1019.4,293.4,1.1,2.4,312.2,0.01,7.3,10.2,"07:42:00",1
"23/03/12","08:00",0.0,8.3,94.7,1019.7,289.1,1.0,1.6,302.5,0.02,7.5,10.2,"07:51:20",1
"23/03/12","08:10",0.0,8.8,94.9,1019.7,296.8,1.3,2.2,323.4,0.02,8.1,10.2,"08:09:28",1
"23/03/12","08:20",0.0,9.7,95.0,1019.7,298.7,1.6,2.0,315.2,0.05,9.0,10.3,"08:11:44",1
"23/03/12","08:30",0.0,10.6,94.8,1019.9,149.3,0.3,0.9,112.8,0.08,9.8,10.3,"08:22:48",1
"23/03/12","08:40",0.0,11.8,94.5,1020.4,317.1,0.3,1.0,299.9,0.12,11.0,10.2,"08:35:12",1
"23/03/12","08:50",0.0,12.2,93.4,1020.1,173.9,0.6,1.2,140.8,0.15,11.2,10.1,"08:46:36",1
"23/03/12","09:00",0.0,13.3,92.7,1020.6,181.8,0.3,0.9,129.9,0.18,12.2,10.3,"08:50:32",1
"23/03/12","09:10",0.0,13.9,90.6,1021.1,263.0,0.5,1.1,114.5,0.19,12.4,10.4,"09:09:36",1
"23/03/12","09:20",0.0,15.1,88.2,1021.1,348.7,0.6,1.0,349.4,0.22,13.2,10.2,"09:11:44",1
"23/03/12","09:30",0.0,15.9,83.5,1020.6,275.3,0.8,1.6,243.3,0.25,13.2,10.2,"09:24:00",1
"23/03/12","09:40",0.0,16.5,78.5,1020.8,236.0,0.3,1.0,253.8,0.27,12.8,10.5,"09:31:20",1
"23/03/12","09:50",0.0,17.3,74.4,1020.1,276.4,0.5,1.6,117.6,0.30,12.7,10.4,"09:47:44",1
"23/03/12","10:00",0.0,17.9,71.5,1020.1,142.5,0.8,1.9,112.7,0.33,12.7,10.4,"09:58:56",1
"23/03/12","10:10",0.0,18.3,70.5,1019.7,183.7,0.7,1.9,130.8,0.35,12.9,10.7,"10:03:36",1
"23/03/12","10:20",0.0,18.3,69.9,1019.2,270.0,1.2,3.7,110.9,0.38,12.8,10.7,"10:18:48",1
"23/03/12","10:30",0.0,18.5,69.3,1019.2,198.8,1.3,3.2,233.9,0.40,12.8,10.7,"10:27:44",1
"23/03/12","10:40",0.0,18.8,68.7,1018.7,203.3,1.5,3.7,225.5,0.42,13.0,11.1,"10:30:48",1
"23/03/12","10:50",0.0,18.9,67.8,1018.7,180.9,1.8,3.3,144.2,0.44,12.9,11.0,"10:40:32",1
"23/03/12","11:00",0.0,19.2,66.5,1018.2,164.6,1.7,3.2,118.4,0.45,12.9,11.0,"10:55:36",1
"23/03/12","11:10",0.0,19.2,65.9,1018.0,238.6,1.6,3.5,243.2,0.47,12.7,11.2,"11:04:16",1
"23/03/12","11:20",0.0,19.6,65.7,1017.5,241.4,1.3,2.9,243.2,0.49,13.1,11.2,"11:18:56",1
"23/03/12","11:30",0.0,20.0,64.5,1017.5,186.5,1.8,3.3,192.7,0.50,13.1,11.3,"11:27:44",1
"23/03/12","11:40",0.0,20.3,63.6,1017.5,197.3,1.7,3.2,188.3,0.52,13.2,11.5,"11:37:52",1
"23/03/12","11:50",0.0,20.5,61.6,1017.3,185.9,1.8,3.3,183.9,0.53,12.9,11.7,"11:41:28",1
"23/03/12","12:00",0.0,20.9,60.5,1017.1,205.6,2.0,4.8,233.6,0.54,13.0,11.7,"11:52:48",1
"23/03/12","12:10",0.0,21.1,59.0,1016.6,179.8,2.1,4.1,132.7,0.55,12.8,11.7,"12:06:48",1
"23/03/12","12:20",0.0,21.3,57.8,1016.4,172.6,2.0,4.1,113.3,0.55,12.7,11.9,"12:12:48",1
"23/03/12","12:30",0.0,21.5,56.9,1016.4,147.1,2.3,4.4,114.5,0.53,12.6,12.0,"12:28:16",1
"23/03/12","12:40",0.0,21.7,55.1,1016.4,154.6,2.3,4.3,111.3,0.46,12.3,12.4,"12:30:08",1
"23/03/12","12:50",0.0,21.6,52.7,1015.9,144.3,2.8,5.8,119.7,0.42,11.6,12.3,"12:42:32",1
"23/03/12","13:00",0.0,21.7,53.6,1015.4,142.6,2.5,6.0,121.0,0.48,11.9,12.5,"12:52:16",1
"23/03/12","13:10",0.0,22.0,52.2,1015.6,179.3,2.0,4.8,197.7,0.39,11.8,12.7,"13:01:04",1
"23/03/12","13:20",0.0,22.0,52.0,1015.2,212.4,2.1,4.2,225.5,0.45,11.7,12.7,"13:10:32",1
"23/03/12","13:30",0.0,22.5,49.7,1014.9,157.2,1.7,4.5,121.1,0.45,11.5,12.8,"13:21:28",1
"23/03/12","13:40",0.0,22.4,47.8,1014.2,110.5,2.0,4.7,133.3,0.45,10.8,12.9,"13:30:02",1
"23/03/12","13:50",0.0,22.5,47.9,1014.2,133.6,2.5,5.0,122.8,0.36,11.0,13.0,"13:40:24",1
"23/03/12","14:00",0.0,22.3,46.6,1014.2,158.0,2.3,5.2,132.4,0.31,10.4,13.2,"13:56:24",1
"23/03/12","14:10",0.0,22.1,45.8,1013.8,167.9,2.2,4.3,146.2,0.27,9.9,13.2,"14:04:32",1
"23/03/12","14:20",0.0,22.5,46.8,1013.3,173.5,1.8,4.4,118.5,0.26,10.6,13.2,"14:16:16",1
"23/03/12","14:30",0.0,22.5,46.0,1013.3,213.6,2.0,3.4,188.5,0.30,10.4,13.2,"14:24:32",1
"23/03/12","14:40",0.0,22.3,46.2,1013.0,159.3,2.2,3.6,143.1,0.21,10.2,13.2,"14:34:08",1
"23/03/12","14:50",0.0,21.9,46.0,1013.0,213.7,2.6,4.5,224.3,0.20,9.8,13.5,"14:44:56",1
"23/03/12","15:00",0.0,21.7,46.0,1012.8,219.6,2.2,5.6,242.8,0.18,9.6,13.6,"14:50:02",1
"23/03/12","15:10",0.0,21.6,47.1,1013.0,235.6,2.1,4.3,244.3,0.15,9.9,13.7,"15:00:08",1
"23/03/12","15:20",0.0,22.0,46.4,1012.6,242.3,2.0,3.7,224.6,0.24,10.0,13.6,"15:16:56",1
"23/03/12","15:30",0.0,22.2,44.4,1012.8,255.5,1.6,2.9,308.6,0.22,9.6,13.6,"15:27:44",1
"23/03/12","15:40",0.0,21.7,44.8,1012.6,273.2,2.3,4.2,254.9,0.19,9.2,13.6,"15:34:24",1
"23/03/12","15:50",0.0,21.8,45.3,1012.6,298.1,2.2,4.2,334.7,0.19,9.5,13.9,"15:44:40",1
"23/03/12","16:00",0.0,22.2,46.4,1012.1,258.4,1.6,4.0,341.6,0.20,10.2,13.7,"15:52:00",1
"23/03/12","16:10",0.0,21.9,45.8,1012.3,220.8,2.1,4.0,229.8,0.20,9.7,13.9,"16:03:20",1
"23/03/12","16:20",0.0,21.9,46.2,1012.1,238.5,1.7,4.7,228.4,0.17,9.9,13.7,"16:11:12",1
"23/03/12","16:30",0.0,21.8,46.6,1012.1,245.0,1.6,3.9,243.9,0.15,9.9,13.8,"16:26:40",1
"23/03/12","16:40",0.0,22.1,47.3,1011.6,220.8,1.5,3.4,210.1,0.18,10.4,13.8,"16:34:40",1
"23/03/12","16:50",0.0,21.9,47.3,1012.1,240.9,2.1,3.5,251.9,0.14,10.2,13.8,"16:45:44",1
"23/03/12","17:00",0.0,21.6,48.3,1012.1,248.2,2.2,4.4,257.7,0.14,10.3,13.8,"16:59:28",1
"23/03/12","17:10",0.0,21.2,50.8,1012.1,246.2,2.1,4.0,244.6,0.10,10.7,14.0,"17:00:16",1
"23/03/12","17:20",0.0,20.6,53.9,1011.9,252.5,3.0,5.0,251.0,0.08,11.0,13.9,"17:10:56",1
"23/03/12","17:30",0.0,20.2,56.3,1012.3,241.4,2.6,4.8,221.1,0.04,11.3,13.8,"17:20:24",1
"23/03/12","17:40",0.0,20.1,57.1,1012.1,250.1,2.7,5.2,225.5,0.04,11.4,14.0,"17:38:32",1
"23/03/12","17:50",0.0,19.8,57.9,1012.3,236.8,2.2,4.2,208.1,0.02,11.3,14.2,"17:49:36",1
"23/03/12","18:00",0.0,19.9,58.3,1012.1,249.6,1.8,3.1,261.4,0.01,11.5,13.9,"17:55:28",1
"23/03/12","18:10",0.0,19.8,58.3,1012.3,235.3,1.6,2.9,242.9,0.01,11.4,13.8,"18:01:12",1
"23/03/12","18:20",0.0,19.6,59.3,1012.1,232.8,2.0,4.1,244.6,0.00,11.5,13.9,"18:11:28",1
"23/03/12","18:30",0.0,19.3,61.0,1012.3,219.5,1.1,2.0,213.6,0.00,11.6,14.0,"18:21:52",1
"23/03/12","18:40",0.0,19.1,61.5,1012.3,204.5,1.6,2.9,165.1,0.00,11.6,14.0,"18:33:20",1
"23/03/12","18:50",0.0,18.9,62.5,1012.6,219.1,1.3,3.2,244.5,0.00,11.6,13.9,"18:42:00",1
"23/03/12","19:00",0.0,18.7,64.3,1012.8,217.6,1.7,2.9,224.2,0.00,11.9,13.9,"18:53:28",1
"23/03/12","19:10",0.0,18.5,64.6,1012.6,220.0,1.5,2.8,193.5,0.00,11.8,14.0,"19:02:16",1
"23/03/12","19:20",0.0,18.6,63.4,1012.6,241.0,1.6,2.9,243.7,0.00,11.6,13.9,"19:11:44",1
"23/03/12","19:30",0.0,18.5,63.6,1012.3,220.8,1.1,2.5,238.9,0.00,11.5,14.0,"19:20:08",1
"23/03/12","19:40",0.0,18.5,64.9,1012.1,213.5,1.3,2.6,211.3,0.00,11.8,13.8,"19:34:32",1
"23/03/12","19:50",0.0,18.3,66.2,1011.9,203.2,1.2,2.4,226.9,0.00,11.9,13.8,"19:41:44",1
"23/03/12","20:00",0.0,18.1,67.5,1012.6,206.1,1.2,3.2,165.6,0.00,12.0,13.9,"19:50:56",1
"23/03/12","20:10",0.0,18.0,68.7,1012.6,201.3,1.2,2.4,177.9,0.00,12.2,13.9,"20:00:40",1
"23/03/12","20:20",0.0,17.8,69.3,1012.1,204.8,1.1,2.4,216.8,0.00,12.1,13.8,"20:16:32",1
"23/03/12","20:30",0.0,17.7,70.0,1012.6,215.9,1.0,1.6,223.4,0.00,12.2,13.7,"20:24:16",1
"23/03/12","20:40",0.0,17.6,70.3,1012.6,217.0,1.1,2.1,204.3,0.00,12.2,13.5,"20:35:12",1
"23/03/12","20:50",0.0,17.4,70.7,1012.6,189.6,0.6,1.1,163.6,0.00,12.1,13.7,"20:44:00",1
"23/03/12","21:00",0.0,17.2,71.1,1012.3,219.9,0.5,1.6,202.1,0.00,12.0,13.7,"20:51:04",1
"23/03/12","21:10",0.0,17.0,71.7,1012.3,216.4,0.5,1.1,251.1,0.00,11.9,13.7,"21:06:16",1
"23/03/12","21:20",0.0,17.1,71.8,1012.1,151.8,1.6,4.0,133.7,0.00,12.0,13.7,"21:18:32",1
"23/03/12","21:30",0.0,17.2,70.5,1012.3,158.5,2.3,4.9,140.2,0.00,11.8,13.7,"21:26:16",1
"23/03/12","21:40",0.0,17.1,69.9,1012.3,162.1,2.3,4.5,146.5,0.00,11.6,13.7,"21:30:48",1
"23/03/12","21:50",0.0,16.8,70.5,1012.6,209.7,1.2,2.4,218.4,0.00,11.5,13.5,"21:42:24",1
"23/03/12","22:00",0.0,16.6,71.1,1012.6,215.2,1.2,2.6,221.5,0.00,11.4,13.6,"21:55:04",1
"23/03/12","22:10",0.0,16.6,71.1,1012.1,185.6,1.7,3.4,173.7,0.00,11.4,13.7,"22:08:48",1
"23/03/12","22:20",0.0,16.5,71.3,1012.1,194.0,1.2,2.6,194.7,0.00,11.3,13.5,"22:15:48",1
"23/03/12","22:30",0.0,16.4,71.7,1012.1,178.4,1.6,2.8,184.2,0.00,11.3,13.4,"22:20:24",1
"23/03/12","22:40",0.0,16.3,72.2,1011.9,136.3,1.3,3.4,127.2,0.00,11.3,13.3,"22:30:32",1
"23/03/12","22:50",0.0,16.1,72.8,1011.6,128.0,2.1,4.7,131.1,0.00,11.3,13.5,"22:46:54",1
"23/03/12","23:00",0.0,15.9,73.4,1011.6,136.0,2.0,3.6,118.6,0.00,11.2,13.5,"22:50:50",1
"23/03/12","23:10",0.0,15.8,73.9,1011.2,132.5,2.2,3.7,120.5,0.00,11.2,13.4,"23:04:42",1
"23/03/12","23:20",0.0,15.7,74.1,1011.4,137.0,1.6,3.2,121.6,0.00,11.1,13.3,"23:19:14",1
"23/03/12","23:30",0.0,15.6,74.4,1011.2,106.3,1.2,2.6,131.3,0.00,11.1,13.3,"23:21:30",1
"23/03/12","23:40",0.0,15.5,74.9,1010.9,63.1,0.6,1.3,101.7,0.00,11.1,13.4,"23:32:32",1
"23/03/12","23:50",0.0,15.4,75.5,1010.7,26.6,0.5,1.2,114.0,0.00,11.1,13.4,"23:41:04",1
"23/03/12","24:00",0.0,15.3,76.0,1010.7,331.4,0.5,1.1,111.0,0.00,11.1,13.4,"23:58:10",1
